Flag for Germany Weather past 2 weeks in Mühlacker, Baden-Württemberg, Germany

Now
46 °F

Partly cloudy.


Feels Like: 39 °F
Forecast: 36 / 53 °F
Wind: 18 mph from Northwest

Location: Stuttgart-Echterdingen

Current Time: Oct 23, 2014 at 4:44:57 AM

Latest Report: Oct 23, 2014 at 4:20 AM


Visibility: N/A

Pressure: 30.18 "Hg

Humidity: 76%

Dew point: 39 °F

Location of MühlackerLocation

Historic Weather in Mühlacker — Graph

°F

Mühlacker temperature yesterday

Maximum temperature yesterday: 46 °F (at 12:20 AM)
Minimum temperature yesterday: 43 °F (at 4:20 AM)
Average temperature yesterday: 44 °F

Past Weeks' High & Low Weather Summary

 TemperatureHumidityPressure
High79 °F (Oct 9, 2:20 PM)100% (Oct 10, 7:50 AM)30.21 "Hg (Oct 10, 7:50 AM)
Low43 °F (Oct 18, 7:50 AM)32% (Oct 9, 3:50 PM)29.65 "Hg (Oct 21, 6:20 PM)
Average58 °F85%29.95 "Hg
* Reported Oct 8 3:20 AM — Oct 23 3:20 AM, Mühlacker, Weather by CustomWeather, © 2014

Note: Actual official high and low records may vary slightly from our data, if they occured in-between our weather recording intervals... More about our weather records

Advertising

Mühlacker weather history for previous 24 hours

 ConditionsComfort  
Time TempWeatherWind HumidityBarometerVisibility
3:20 AM
Oct 23
45 °FPassing clouds.13 mph87%30.15 "HgN/A
2:50 AM45 °FPassing clouds.15 mph87%30.15 "HgN/A
2:20 AM45 °FPartly cloudy.15 mph87%30.15 "HgN/A
1:50 AM45 °FPassing clouds.14 mph87%30.15 "HgN/A
1:20 AM45 °FPassing clouds.13 mph87%30.15 "HgN/A
12:50 AM45 °FSprinkles. Passing clouds.14 mph87%30.12 "HgN/A
12:20 AM45 °FPassing clouds.16 mph87%30.12 "HgN/A
11:50 PM
Oct 22
45 °FPassing clouds.21 mph87%30.12 "HgN/A
11:20 PM45 °FPassing clouds.15 mph87%30.12 "HgN/A
10:50 PM46 °FPartly cloudy.17 mph82%30.12 "HgN/A
10:20 PM45 °FPassing clouds.20 mph87%30.12 "HgN/A
9:50 PM45 °FLight rain. Partly cloudy.21 mph87%30.09 "HgN/A
9:20 PM45 °FLight rain. Partly cloudy.20 mph87%30.09 "HgN/A
8:50 PM46 °FPassing clouds.23 mph76%30.07 "HgN/A
8:20 PM46 °FLight rain. Partly cloudy.21 mph76%30.07 "HgN/A
7:50 PM46 °FPartly cloudy.21 mph76%30.07 "HgN/A
7:20 PM46 °FBroken clouds.24 mph71%30.07 "HgN/A
6:50 PM46 °FBroken clouds.25 mph71%30.04 "HgN/A
6:20 PM46 °FBroken clouds.15 mph71%30.04 "HgN/A
5:50 PM46 °FBroken clouds.17 mph71%30.04 "HgN/A
5:20 PM45 °FBroken clouds.16 mph76%30.04 "HgN/A
4:20 PM45 °FBroken clouds.16 mph76%30.04 "HgN/A
3:50 PM45 °FBroken clouds.15 mph76%30.07 "HgN/A
3:20 PM45 °FLight rain. Partly sunny.15 mph76%30.07 "HgN/A
2:50 PM43 °FLight rain. Partly sunny.15 mph87%30.07 "HgN/A
2:20 PM43 °FLight rain. Partly sunny.14 mph81%30.07 "HgN/A
1:50 PM43 °FLight rain. Partly sunny.15 mph81%30.07 "HgN/A
1:20 PM43 °FLight rain. Partly sunny.17 mph87%30.07 "HgN/A
12:50 PM43 °FLight rain. Partly sunny.20 mph87%30.07 "HgN/A
12:20 PM45 °FSprinkles. Partly sunny.20 mph76%30.07 "HgN/A
11:50 AM45 °FSprinkles. Partly sunny.20 mph76%30.07 "HgN/A
11:20 AM45 °FSprinkles. Partly sunny.20 mph76%30.07 "HgN/A
10:50 AM45 °FSprinkles. Broken clouds.21 mph71%30.04 "HgN/A
10:20 AM45 °FBroken clouds.23 mph76%30.04 "HgN/A
9:50 AM45 °FBroken clouds.20 mph76%30.04 "HgN/A
9:20 AM43 °FBroken clouds.22 mph81%30.04 "HgN/A
8:50 AM43 °FPartly cloudy.20 mph81%30.01 "HgN/A
8:20 AM43 °FPartly cloudy.22 mph76%30.01 "HgN/A
7:50 AM43 °FPassing clouds.21 mph76%30.01 "HgN/A
7:20 AM43 °FPassing clouds.16 mph76%29.98 "HgN/A
6:50 AM43 °FPartly cloudy.20 mph76%29.98 "HgN/A
6:20 AM43 °FPartly cloudy.18 mph81%29.98 "HgN/A
5:50 AM43 °FSprinkles. Partly cloudy.15 mph81%29.98 "HgN/A
5:20 AM45 °FPartly cloudy.16 mph71%29.98 "HgN/A
4:50 AM43 °FPartly cloudy.21 mph76%29.95 "HgN/A
4:20 AM43 °FSprinkles. Partly cloudy.15 mph81%29.98 "HgN/A
Weather by CustomWeather, © 2014

See weather overviewHow to use our weather pages